Wind_Speed
26 29 33 33 32 29 26 32 56 62 70 64 74 88 92 89 85 80 70 64 59 54 49 44 44 38 47 45 47 48 44 46 57 49 43 43 40 35 31 25 20 23 25 25 25 23 23 22 22 21 21 21 24 26
23 27 31 31 29 26 28 49 56 58 51 47 68 85 90 88 82 74 69 63 58 54 44 45 48 43 38 43 48 49 41 42 43 37 38 38 38 35 29 26 23 24 22 22 23 23 23 20 17 15 22 25 27 29
24 27 29 28 24 27 36 51 53 50 41 44 62 86 89 84 79 73 68 60 55 47 52 47 43 50 46 50 45 43 46 45 50 46 40 39 37 36 32 26 26 22 20 20 20 20 20 19 21 23 27 30 32 34
22 23 24 24 25 35 40 47 47 40 40 49 66 80 85 78 75 69 62 57 56 57 52 50 51 54 53 48 45 40 51 43 43 43 41 44 42 39 32 28 28 24 23 22 23 24 25 26 28 29 32 35 37 40
26 21 22 29 34 36 37 38 42 44 45 56 72 83 83 79 72 65 56 41 30 57 50 46 56 60 58 53 50 47 36 45 27 31 40 44 42 39 35 32 30 28 26 26 26 28 31 32 34 36 39 41 42 43
45 42 42 44 43 38 35 36 39 48 57 65 80 84 82 75 70 62 56 31 35 31 38 41 35 36 38 41 48 29 47 43 40 37 42 43 41 40 38 36 32 31 30 30 31 32 34 37 39 41 43 44 45 47
49 53 53 51 50 47 45 42 46 57 65 72 79 80 83 85 79 42 53 22 27 23 27 28 34 34 42 43 50 49 47 44 49 49 47 43 42 41 40 38 34 33 33 34 35 36 38 40 43 45 47 47 48 49
50 46 51 57 56 47 50 62 74 78 80 80 79 78 78 72 45 28 29 18 42 29 34 36 34 31 36 43 44 43 41 48 49 45 42 42 42 43 44 40 37 36 35 37 39 41 43 44 45 47 48 49 49 49
52 48 45 48 51 50 65 79 74 76 81 78 76 68 59 62 50 52 35 27 39 47 25 18 29 36 38 44 42 39 37 43 44 47 45 41 42 45 44 40 40 40 40 40 42 44 46 48 48 49 49 49 49 49
46 50 53 54 51 53 59 67 66 62 66 64 60 64 41 30 29 46 51 46 30 33 30 29 29 33 38 40 41 37 40 42 43 45 45 45 43 43 43 43 43 44 43 43 44 46 47 49 51 50 49 50 50 52
36 43 48 45 47 54 54 52 54 58 64 58 50 45 24 37 32 32 37 39 36 34 32 28 27 29 28 34 33 34 37 37 38 39 40 42 42 41 41 43 44 43 45 46 47 48 50 51 49 49 50 51 52 52
27 31 32 36 43 46 47 47 50 51 49 47 51 45 28 19 30 31 26 32 35 33 31 24 25 25 23 29 32 34 35 37 40 40 41 42 38 38 40 41 41 43 45 47 48 49 48 48 49 50 51 50 50 51
23 23 26 27 30 33 38 43 49 37 33 34 37 30 37 23 23 27 25 23 20 29 36 23 26 21 27 30 30 33 35 37 36 37 38 36 36 36 37 38 40 42 44 45 45 47 48 48 48 47 48 51 51 54
24 21 22 23 24 26 28 30 36 39 30 36 38 30 34 30 23 19 22 23 17 15 16 21 29 25 25 29 34 36 36 36 38 37 33 32 33 33 33 35 38 40 41 43 45 46 47 48 48 49 48 52 57 59
16 23 17 20 21 22 24 26 28 31 31 34 33 29 27 25 25 21 20 18 25 17 16 15 15 17 20 22 24 26 28 30 28 26 27 27 28 30 33 37 39 40 43 45 47 47 46 46 47 50 55 59 60 58
19 17 21 16 17 17 14 19 20 23 27 31 33 29 27 26 23 20 15 15 23 23 20 19 19 21 21 24 23 25 26 26 27 27 28 29 31 34 37 41 43 45 45 44 43 43 45 48 53 59 60 58 57 56
15 10 16 16 15 16 13 11 20 23 22 23 18 18 26 26 24 23 17 18 22 19 17 17 17 20 21 23 24 25 27 28 30 32 35 37 39 43 43 41 39 39 39 41 44 48 54 57 57 55 55 55 56 58
13 12 11 21 25 15 13 13 13 13 15 16 16 15 20 19 22 17 18 16 15 16 16 18 20 23 23 24 27 30 32 35 37 39 41 42 39 37 36 37 40 43 47 52 54 54 55 54 54 54 56 58 59 62
14 18 20 22 27 28 25 25 23 16 13 14 13 15 17 17 20 19 17 17 19 21 22 24 23 23 25 27 29 32 35 38 39 38 37 38 39 41 43 46 49 51 53 53 52 52 53 54 55 58 59 61 63 64
14 17 20 21 23 27 27 25 26 25 22 21 23 23 23 25 26 26 26 25 24 25 27 30 30 31 32 32 32 33 34 35 37 40 43 45 47 49 50 51 52 52 51 51 52 54 55 58 60 61 63 65 67 66
20 19 20 22 22 22 22 22 22 22 24 24 25 26 27 29 31 31 32 32 33 31 30 29 30 31 31 33 35 37 39 42 44 46 48 49 49 49 49 50 50 50 52 55 56 58 60 62 63 64 64 63 61 58
23 21 20 20 23 22 23 24 24 23 23 26 27 28 29 30 30 29 29 29 29 29 30 31 34 36 39 40 41 43 43 44 45 45 46 46 47 48 50 52 53 55 56 59 60 62 64 65 65 63 59 56 53 52
28 27 26 27 27 25 26 26 28 27 25 25 27 29 29 29 30 32 33 34 36 37 38 40 41 42 41 41 41 42 42 43 44 46 46 47 49 51 53 56 58 60 62 64 65 65 63 60 55 54 54 53 54 57
21 23 28 32 33 31 31 32 32 32 34 36 36 35 34 34 36 37 38 40 39 39 39 37 36 37 38 39 40 41 42 44 46 48 51 53 56 58 60 61 63 63 63 61 57 53 53 54 54 54 54 56 60 63
10 11 14 16 19 21 23 23 24 27 26 26 28 29 29 31 30 30 31 33 34 34 35 36 37 38 39 41 43 45 48 50 52 54 56 58 60 61 61 60 58 57 54 54 53 52 53 53 54 58 61 63 64 65
12 12 13 14 16 18 19 19 20 20 21 23 24 25 26 27 28 29 31 33 34 35 37 39 41 43 45 47 48 50 52 54 55 56 54 51 48 46 44 43 44 44 46 48 51 53 56 59 61 63 65 66 66 67
16 15 15 15 15 16 18 20 21 22 23 24 25 26 27 29 30 32 34 35 37 38 40 42 44 46 47 47 47 45 43 39 37 36 34 34 37 39 41 43 46 49 51 55 57 60 62 64 64 65 66 68 69 69
19 19 18 18 18 18 19 19 21 23 24 26 27 29 30 31 32 33 34 34 35 36 35 34 33 31 30 30 31 31 33 34 36 39 41 43 46 49 51 53 55 57 59 61 62 63 64 65 66 68 69 70 72 73
21 21 20 20 20 21 22 23 24 25 26 26 27 27 27 28 28 27 28 28 27 26 27 28 29 31 33 35 37 39 41 43 45 48 49 51 53 55 57 58 59 60 61 62 63 64 66 67 69 71 73 74 74 72
14 16 16 17 17 18 18 19 19 20 20 20 21 21 22 22 23 24 26 28 29 31 33 35 36 37 40 43 45 47 50 52 53 54 56 56 58 58 59 60 60 61 61 63 65 67 70 72 73 73 71 69 67 65
10 11 13 14 15 16 17 18 19 20 21 23 24 25 26 27 29 30 32 34 35 37 40 42 44 45 47 48 49 50 51 52 53 53 54 54 54 55 56 58 61 64 66 68 70 70 70 69 68 67 66 64 61 58
17 18 19 20 22 23 24 25 26 27 28 30 30 31 33 35 35 36 38 39 40 41 42 42 43 43 43 43 43 44 44 46 47 49 52 55 58 60 63 64 65 65 65 65 65 65 64 62 62 62 61 60 59 57
15 15 15 17 18 20 21 23 24 26 27 29 30 31 32 33 34 33 34 34 34 34 34 35 36 38 39 41 43 45 47 50 53 55 57 57 58 59 59 59 60 59 60 60 61 60 59 58 57 55 54 53 51 50
Wind_Direction
164 178 188 186 192 198 215 186 173 176 182 196 197 192 185 188 190 192 195 197 197 202 206 208 204 211 217 224 231 235 231 221 226 218 215 221 228 227 233 238 238 247 250 248 253 259 260 263 261 262 265 271 275 281
159 166 171 178 188 198 183 172 180 188 191 192 197 195 179 186 186 189 190 194 194 201 209 216 216 217 219 228 232 232 228 223 231 232 210 219 225 227 233 236 234 242 249 250 253 256 258 254 262 273 278 279 282 286
157 165 173 182 181 179 176 180 184 188 193 188 191 189 177 182 183 185 188 190 190 197 211 213 216 217 220 222 221 225 229 221 227 226 216 222 226 226 231 235 241 236 240 247 252 254 260 269 277 281 284 286 290 294
174 180 186 189 185 172 178 186 188 190 180 176 185 184 173 174 179 179 183 189 195 201 212 225 226 222 224 221 221 223 215 220 235 202 216 223 225 225 231 236 242 246 249 256 261 265 271 276 279 282 285 290 291 293
116 138 155 162 163 165 171 175 178 175 171 169 176 173 166 170 171 170 174 176 195 205 215 224 213 205 229 224 222 228 236 216 205 206 217 223 225 229 233 238 243 249 258 262 265 273 281 284 287 291 292 292 295 296
89 93 95 104 125 139 153 162 167 166 159 163 167 164 162 160 161 164 164 148 156 152 171 184 183 200 199 204 206 187 200 223 209 220 223 225 229 233 238 241 247 254 260 265 272 275 280 284 287 288 290 294 296 298
73 79 90 97 103 112 121 128 140 145 146 153 155 155 157 160 150 150 167 146 156 179 181 200 202 194 197 194 210 224 231 231 230 218 228 230 232 238 242 246 253 260 267 269 273 279 281 284 286 290 293 296 298 299
74 80 85 90 91 94 115 125 127 133 138 143 146 150 161 165 162 150 164 190 203 210 222 228 228 220 216 218 221 223 232 237 216 218 228 234 236 240 245 251 260 267 271 274 277 279 282 286 289 292 294 295 296 295
81 83 95 98 100 114 125 133 135 138 143 144 141 141 152 170 182 193 197 178 174 199 208 223 223 220 222 219 221 223 229 224 222 226 229 235 239 243 248 259 266 268 271 276 278 281 284 287 290 292 294 294 293 293
95 95 100 105 113 122 131 135 137 140 138 142 142 154 131 146 165 184 198 210 217 212 219 228 228 218 217 218 223 225 219 224 228 229 233 237 243 248 253 260 266 270 273 276 279 281 284 287 289 291 292 292 292 293
93 103 113 114 116 124 132 142 149 147 152 149 154 162 120 160 163 172 196 206 211 212 217 228 216 215 218 217 223 225 224 227 229 230 235 239 243 248 254 259 264 269 273 276 279 282 284 286 289 289 290 291 292 293
104 104 107 115 121 126 134 142 150 153 158 163 168 163 162 162 185 193 198 203 212 220 215 217 207 207 212 215 219 219 221 225 229 230 236 241 247 253 258 263 268 271 274 277 280 282 285 286 287 289 291 292 292 294
113 118 115 122 122 128 137 144 150 152 165 168 176 182 193 200 200 199 203 208 203 212 213 210 205 219 229 218 218 222 225 230 235 239 242 249 255 259 262 265 269 273 275 277 279 281 284 286 287 289 290 292 292 293
115 129 131 137 138 141 147 157 162 170 173 173 180 189 188 195 202 205 209 209 210 188 197 214 223 232 217 217 220 222 223 229 237 244 248 255 260 266 269 268 268 270 274 277 281 283 284 286 288 290 289 290 294 297
102 118 135 149 147 154 163 168 174 186 194 191 191 200 203 207 206 208 217 223 215 202 208 224 224 223 227 229 230 232 237 242 247 257 260 262 263 267 271 273 275 277 280 282 284 285 286 288 288 287 289 293 295 296
151 148 149 153 159 150 156 181 184 187 190 198 205 206 209 207 204 203 230 213 206 206 217 228 233 237 240 245 247 252 255 258 260 259 260 263 270 275 279 279 278 280 281 283 284 286 287 286 285 288 292 294 295 296
169 163 182 177 147 168 178 168 173 173 179 188 189 199 204 206 210 214 213 217 216 220 228 235 242 247 255 256 257 255 255 254 255 261 267 274 279 283 284 283 282 283 284 285 285 282 284 288 291 292 293 294 295 295
195 200 183 186 190 179 168 162 174 178 182 188 192 196 200 212 215 210 207 207 211 224 233 240 246 250 254 257 261 261 261 263 265 270 277 281 282 282 283 284 284 282 281 283 285 288 289 291 291 292 293 295 295 295
185 190 191 194 201 205 213 201 204 203 213 221 215 223 215 217 216 217 217 243 250 247 255 251 249 254 259 263 265 267 268 272 276 277 279 281 282 282 282 282 284 286 287 288 289 289 290 291 292 293 294 295 297 299
208 196 199 201 198 203 206 208 208 208 204 210 215 220 223 224 225 230 242 252 257 260 259 260 261 266 268 268 269 271 274 275 276 278 280 281 281 282 283 284 285 286 287 288 289 290 291 292 293 295 297 298 299 300
220 222 216 218 218 213 213 213 215 219 222 224 226 230 234 236 242 248 255 258 259 257 256 259 263 265 267 268 271 274 276 277 277 278 279 280 281 283 284 284 286 287 287 288 290 290 291 292 294 296 297 298 299 300
220 220 224 227 222 223 223 224 225 224 229 231 235 238 241 243 244 245 245 245 247 251 255 258 260 263 266 269 271 273 275 276 277 279 280 281 282 284 285 286 286 287 289 289 291 292 293 293 294 296 297 298 300 300
228 227 231 231 232 230 233 233 230 226 229 238 243 246 244 244 247 248 250 251 254 257 260 262 263 265 268 271 273 275 276 276 277 279 281 282 283 284 285 285 286 287 288 289 290 291 293 295 295 295 297 298 300 301
236 233 235 237 239 243 243 244 245 245 243 243 246 250 251 252 252 252 253 255 259 261 263 265 267 269 271 273 275 276 278 279 281 282 283 284 285 285 286 287 287 288 289 290 290 290 291 293 294 296 297 298 299 300
287 266 254 246 241 242 244 244 244 245 247 248 250 251 253 256 258 260 263 265 267 268 270 271 272 273 274 275 276 277 278 279 280 281 282 283 284 284 284 285 285 286 287 288 291 292 294 294 294 295 296 297 298 299
298 285 269 258 250 250 250 250 251 252 252 253 253 256 257 259 260 262 264 266 267 270 271 273 274 276 277 278 278 279 279 280 281 281 282 283 284 284 286 288 290 292 291 290 291 291 292 293 293 295 295 296 297 298
306 287 276 269 261 254 251 251 252 254 255 256 257 259 260 262 264 265 267 269 270 271 273 274 275 276 278 279 280 282 284 286 287 289 291 292 292 292 291 291 290 290 290 290 290 291 292 293 293 294 295 296 297 299
293 281 270 265 262 260 259 258 258 258 259 259 260 260 261 263 266 268 270 273 274 276 279 281 283 285 287 288 288 289 290 290 290 290 290 290 290 289 290 290 290 290 290 290 291 292 293 294 295 295 296 297 299 300
279 274 269 263 261 260 259 260 260 260 261 262 263 264 267 269 272 273 275 277 279 281 284 286 287 288 288 288 288 288 288 288 288 288 288 288 289 290 291 291 291 291 292 292 292 292 293 294 295 296 297 299 300 300
269 268 265 265 264 263 263 263 264 266 268 269 271 274 276 278 278 279 278 278 280 281 283 285 286 287 287 287 287 287 288 288 289 289 290 290 290 290 290 291 291 292 292 293 294 295 295 296 297 297 298 298 298 298
286 282 277 275 272 271 270 270 270 270 271 272 274 275 276 276 278 279 280 281 282 284 285 286 287 288 288 289 290 290 291 291 292 292 292 293 293 294 294 294 294 295 295 296 296 297 297 297 297 298 298 299 299 299
284 281 279 276 274 273 272 271 271 271 273 273 273 273 274 276 277 279 281 283 285 286 287 289 290 291 292 293 294 294 294 295 295 296 296 297 297 297 297 297 297 297 298 298 298 299 299 299 299 299 298 298 298 297
314 307 305 301 297 292 288 285 282 280 278 277 278 278 279 280 282 284 286 287 289 291 292 293 294 295 296 296 297 297 298 299 299 299 299 299 299 300 300 301 301 301 301 301 301 302 302 301 301 301 300 299 299 298
Height
5253 5262 5270 5279 5287 5294 5299 5303 5316 5332 5346 5361 5380 5396 5424 5452 5474 5497 5522 5541 5558 5573 5584 5592 5601 5610 5619 5629 5636 5641 5650 5655 5653 5663 5668 5675 5682 5686 5688 5691 5693 5692 5693 5694 5695 5696 5697 5697 5698 5701 5701 5700 5698 5697
5259 5265 5272 5281 5288 5294 5299 5310 5323 5335 5349 5363 5379 5398 5423 5450 5476 5501 5520 5539 5556 5569 5581 5585 5594 5605 5613 5623 5630 5636 5647 5653 5655 5658 5663 5671 5676 5681 5683 5684 5686 5688 5689 5689 5690 5691 5690 5691 5693 5695 5693 5691 5691 5689
5265 5271 5277 5283 5289 5294 5302 5314 5326 5339 5353 5365 5381 5403 5426 5453 5479 5503 5522 5538 5554 5568 5573 5581 5591 5597 5606 5610 5622 5628 5635 5644 5649 5656 5661 5667 5671 5675 5677 5679 5679 5682 5683 5683 5684 5684 5684 5686 5687 5686 5684 5683 5681 5679
5271 5275 5279 5285 5290 5298 5307 5318 5329 5342 5353 5366 5384 5408 5432 5460 5485 5505 5522 5539 5551 5561 5569 5578 5583 5591 5598 5606 5613 5615 5629 5637 5641 5645 5651 5659 5664 5668 5672 5673 5674 5676 5677 5677 5677 5677 5678 5679 5678 5678 5676 5674 5671 5668
5275 5277 5281 5286 5293 5301 5310 5320 5331 5342 5354 5369 5391 5415 5441 5465 5488 5509 5526 5541 5551 5560 5569 5570 5572 5588 5594 5604 5613 5619 5624 5631 5632 5640 5646 5652 5657 5662 5665 5666 5668 5669 5671 5671 5671 5672 5670 5669 5668 5667 5665 5663 5661 5658
5294 5294 5294 5295 5299 5305 5313 5322 5332 5344 5359 5377 5400 5426 5450 5473 5493 5513 5524 5539 5545 5549 5560 5559 5571 5583 5592 5604 5606 5593 5614 5621 5630 5635 5639 5645 5650 5655 5657 5659 5661 5662 5663 5664 5664 5664 5663 5661 5659 5657 5655 5653 5650 5646
5316 5313 5312 5313 5315 5319 5326 5333 5343 5357 5375 5399 5423 5445 5462 5478 5495 5514 5534 5535 5546 5549 5559 5567 5574 5581 5588 5595 5602 5605 5613 5620 5625 5629 5633 5638 5643 5646 5648 5651 5653 5654 5654 5655 5655 5655 5654 5652 5649 5646 5644 5641 5637 5633
5342 5340 5340 5340 5343 5344 5348 5355 5369 5386 5404 5424 5445 5462 5479 5496 5510 5518 5530 5536 5545 5552 5556 5563 5570 5578 5583 5590 5596 5601 5607 5611 5616 5621 5628 5631 5635 5637 5639 5644 5645 5646 5646 5645 5644 5644 5643 5640 5638 5636 5633 5630 5626 5622
5368 5368 5369 5370 5374 5378 5383 5390 5399 5412 5428 5443 5459 5477 5496 5510 5519 5527 5532 5538 5542 5552 5557 5562 5567 5574 5579 5585 5589 5596 5600 5604 5610 5615 5620 5624 5627 5629 5633 5636 5636 5637 5637 5636 5634 5633 5630 5628 5626 5624 5620 5617 5613 5609
5394 5394 5395 5397 5400 5407 5415 5423 5431 5440 5449 5462 5476 5489 5498 5510 5521 5527 5533 5539 5546 5552 5558 5563 5566 5570 5576 5582 5586 5591 5594 5598 5603 5608 5613 5616 5619 5622 5625 5626 5626 5627 5626 5625 5623 5621 5619 5617 5614 5611 5607 5603 5600 5595
5416 5417 5419 5421 5426 5431 5437 5444 5451 5461 5470 5477 5485 5495 5505 5516 5522 5527 5535 5541 5545 5551 5556 5559 5561 5566 5571 5576 5581 5585 5588 5592 5596 5602 5605 5608 5611 5614 5615 5616 5616 5616 5614 5613 5611 5609 5607 5605 5602 5598 5594 5590 5587 5582
5432 5434 5436 5440 5445 5449 5455 5460 5466 5475 5482 5491 5498 5504 5509 5515 5521 5528 5534 5540 5545 5548 5552 5555 5559 5564 5567 5571 5574 5579 5582 5586 5588 5593 5596 5599 5605 5606 5605 5606 5605 5604 5602 5601 5599 5596 5594 5591 5588 5584 5581 5577 5573 5569
5444 5447 5451 5454 5458 5463 5469 5474 5479 5485 5492 5499 5504 5510 5516 5520 5524 5529 5533 5539 5542 5543 5549 5554 5558 5561 5564 5567 5571 5574 5577 5580 5583 5586 5589 5594 5595 5596 5596 5595 5594 5593 5591 5589 5586 5584 5581 5579 5575 5571 5567 5563 5560 5555
5454 5457 5461 5465 5469 5473 5478 5482 5487 5492 5496 5502 5507 5512 5516 5520 5525 5531 5535 5537 5540 5542 5546 5551 5555 5559 5561 5563 5565 5569 5572 5574 5577 5580 5584 5585 5584 5585 5585 5584 5583 5581 5580 5576 5575 5572 5568 5565 5562 5559 5555 5551 5546 5540
5462 5465 5467 5472 5476 5480 5484 5488 5493 5497 5500 5505 5509 5513 5518 5523 5526 5530 5534 5537 5540 5542 5545 5548 5551 5555 5557 5559 5562 5564 5566 5567 5571 5573 5574 5574 5575 5575 5574 5573 5572 5570 5567 5565 5562 5559 5555 5552 5549 5546 5542 5537 5531 5525
5469 5473 5476 5478 5480 5484 5487 5490 5494 5499 5502 5506 5510 5515 5518 5521 5525 5529 5531 5534 5536 5540 5543 5546 5548 5550 5552 5554 5557 5558 5560 5562 5564 5563 5564 5564 5565 5564 5562 5561 5559 5556 5554 5551 5548 5546 5543 5540 5536 5531 5526 5521 5515 5510
5472 5474 5477 5480 5484 5487 5490 5493 5496 5499 5503 5507 5510 5513 5516 5520 5523 5526 5529 5532 5535 5537 5539 5542 5544 5546 5548 5549 5551 5553 5554 5554 5555 5555 5554 5554 5554 5552 5549 5547 5545 5542 5540 5538 5536 5533 5529 5525 5520 5514 5509 5506 5500 5493
5472 5475 5478 5481 5485 5488 5491 5493 5497 5500 5503 5506 5509 5512 5515 5518 5521 5524 5527 5529 5532 5534 5536 5538 5540 5541 5542 5543 5545 5545 5546 5545 5545 5544 5543 5542 5540 5538 5537 5535 5533 5531 5528 5524 5520 5516 5512 5508 5503 5498 5493 5488 5484 5477
5472 5475 5477 5480 5484 5488 5491 5494 5497 5499 5502 5504 5507 5510 5513 5516 5519 5521 5524 5526 5528 5529 5531 5532 5533 5534 5535 5536 5536 5536 5536 5535 5534 5532 5531 5530 5528 5527 5525 5522 5519 5516 5512 5508 5504 5500 5496 5492 5487 5482 5476 5470 5465 5459
5472 5474 5477 5479 5482 5485 5488 5491 5494 5497 5499 5502 5504 5506 5509 5511 5514 5516 5518 5519 5521 5522 5523 5524 5525 5525 5526 5525 5525 5525 5524 5524 5523 5521 5519 5517 5515 5513 5510 5507 5503 5500 5497 5494 5490 5485 5480 5474 5469 5463 5458 5451 5446 5441
5470 5472 5475 5477 5479 5482 5484 5486 5489 5491 5494 5497 5498 5501 5503 5505 5507 5509 5510 5511 5513 5513 5514 5514 5515 5515 5515 5515 5514 5513 5513 5511 5510 5508 5506 5503 5500 5498 5495 5492 5489 5485 5481 5477 5472 5468 5463 5458 5452 5447 5442 5435 5429 5424
5465 5468 5470 5473 5475 5478 5479 5482 5484 5486 5489 5490 5493 5494 5496 5497 5499 5500 5501 5503 5503 5504 5505 5505 5505 5505 5504 5503 5502 5501 5500 5498 5496 5494 5491 5488 5486 5483 5480 5477 5473 5469 5465 5460 5455 5450 5445 5439 5434 5429 5424 5418 5413 5408
5460 5463 5466 5468 5470 5472 5475 5477 5479 5480 5482 5484 5486 5487 5488 5490 5491 5492 5492 5493 5494 5494 5494 5494 5493 5492 5491 5490 5488 5487 5485 5483 5481 5480 5477 5474 5471 5468 5464 5460 5457 5452 5447 5442 5437 5432 5427 5421 5417 5413 5408 5403 5398 5392
5454 5456 5458 5460 5462 5464 5466 5468 5471 5472 5474 5475 5476 5477 5479 5480 5480 5481 5481 5482 5482 5482 5482 5482 5481 5479 5479 5477 5476 5474 5472 5469 5467 5464 5461 5458 5455 5451 5447 5442 5438 5433 5428 5423 5419 5415 5411 5406 5402 5398 5392 5387 5382 5376
5452 5452 5453 5454 5454 5457 5458 5459 5460 5462 5463 5465 5466 5467 5467 5468 5469 5469 5470 5470 5470 5470 5469 5469 5468 5467 5466 5464 5463 5461 5458 5456 5453 5450 5446 5442 5438 5433 5429 5424 5419 5415 5411 5407 5403 5399 5395 5391 5386 5381 5375 5370 5364 5358
5447 5447 5448 5448 5449 5451 5452 5453 5454 5455 5455 5456 5457 5458 5459 5459 5460 5460 5460 5459 5459 5458 5457 5456 5455 5454 5452 5450 5448 5445 5442 5439 5436 5432 5428 5424 5420 5416 5413 5410 5405 5401 5397 5392 5388 5384 5379 5374 5369 5363 5357 5351 5345 5340
5443 5443 5442 5442 5442 5443 5444 5445 5446 5447 5447 5448 5448 5449 5449 5449 5449 5449 5448 5448 5447 5446 5445 5443 5442 5440 5437 5434 5432 5428 5425 5422 5419 5416 5413 5410 5407 5403 5400 5397 5392 5388 5383 5377 5372 5367 5361 5356 5350 5344 5338 5331 5325 5319
5437 5436 5436 5436 5436 5437 5437 5438 5438 5438 5439 5439 5440 5439 5439 5439 5439 5437 5436 5435 5434 5433 5431 5429 5427 5425 5423 5421 5418 5416 5413 5411 5408 5405 5402 5398 5393 5389 5385 5380 5375 5370 5366 5360 5354 5348 5342 5335 5329 5323 5317 5311 5304 5297
5427 5428 5428 5428 5428 5428 5428 5429 5429 5429 5429 5429 5429 5428 5428 5427 5427 5426 5425 5424 5423 5422 5420 5419 5417 5415 5412 5410 5407 5404 5401 5398 5395 5391 5388 5384 5379 5372 5367 5362 5356 5351 5345 5339 5334 5327 5321 5315 5309 5302 5295 5289 5281 5274
5419 5419 5419 5419 5420 5419 5420 5420 5420 5420 5420 5419 5420 5419 5419 5418 5417 5417 5416 5414 5413 5412 5410 5407 5405 5404 5400 5397 5393 5390 5386 5382 5378 5374 5369 5364 5360 5355 5349 5343 5337 5332 5325 5319 5313 5306 5299 5293 5285 5278 5272 5266 5260 5254
5415 5415 5415 5414 5414 5413 5413 5413 5413 5413 5413 5412 5411 5411 5410 5409 5408 5407 5406 5404 5403 5400 5397 5395 5392 5390 5386 5383 5379 5374 5369 5365 5360 5355 5350 5345 5340 5335 5330 5324 5318 5311 5305 5298 5290 5283 5276 5269 5262 5256 5249 5243 5238 5233
5411 5409 5409 5408 5407 5406 5406 5405 5405 5405 5403 5402 5402 5401 5400 5398 5398 5396 5394 5392 5390 5387 5385 5381 5378 5375 5371 5367 5363 5359 5355 5350 5345 5340 5334 5328 5322 5316 5310 5303 5296 5289 5282 5275 5268 5261 5254 5247 5241 5235 5229 5223 5217 5212
5404 5403 5402 5400 5399 5397 5396 5396 5394 5393 5393 5391 5390 5389 5388 5387 5386 5384 5382 5380 5377 5375 5372 5369 5366 5362 5359 5354 5350 5346 5341 5335 5330 5324 5318 5311 5304 5297 5290 5283 5276 5268 5261 5254 5247 5240 5233 5226 5220 5214 5208 5203 5198 5193